Location: Sternwarte_Laufen
(47.9344°N, 12.9346°E)
Time: 10:20:17
(UTC+02:00)

ISS - Pass Details

Date: 24 May 2018
Orbit: 402 x 407 km, 51.6° (Epoch: 23 May)

Event Time Altitude Azimuth Distance (km) Brightness Sun altitude
Rises 02:56:58 0° 292° (WNW) 2,321 0.0 -16.9°
Reaches altitude 10° 02:59:07 10° 285° (WNW) 1,458 -1.1 -16.7°
Enters shadow 03:00:20 20° 276° (W) 997 -2.1 -16.6°
